Location: Capvern
(43.1036°N, 0.3160°E)
Time: 04:58:02
(UTC+00:00)

Cosmos 1300 - Pass Details

Date: 16 October 2021
Orbit: 509 x 512 km, 82.5° (Epoch: 01 December)

Event Time Altitude Azimuth Distance (km) Brightness Sun altitude
Rises 18:28:35 0° 163° (SSE) 2,612 6.1 -14.3°
Reaches altitude 10° 18:30:52 10° 152° (SSE) 1,731 5.1 -14.8°
Enters shadow 18:33:29 27° 112° (ESE) 1,004 3.6 -15.2°
Exits shadow 18:37:46 - 28° (NNE) 1,824 5.2 -16.0°
Sets 18:39:51 0° 19° (NNE) 2,636 6.1 -16.4°
